QPF
0.00 0.00 0.00 0.00 0.00 0.00 0.00 0.00 0.00 0.00 0.00 0.00 0.00 0.00 0.00 0.00 0.00 0.00 0.00 0.00 0.00 0.00 0.00 0.00 0.00 0.00 0.00 0.00 0.00 0.00 0.00 0.00 0.00 0.00 0.01 0.01 0.01 0.01 0.02 0.01 0.01 0.01 0.01
0.00 0.00 0.00 0.00 0.00 0.00 0.00 0.00 0.00 0.00 0.00 0.00 0.00 0.00 0.00 0.00 0.00 0.00 0.00 0.00 0.00 0.00 0.00 0.00 0.00 0.00 0.00 0.00 0.00 0.00 0.00 0.00 0.00 0.01 0.01 0.02 0.02 0.01 0.02 0.02 0.00 0.00 0.01
0.00 0.00 0.00 0.00 0.00 0.00 0.00 0.00 0.00 0.00 0.00 0.00 0.00 0.00 0.00 0.00 0.00 0.00 0.00 0.00 0.00 0.00 0.00 0.00 0.00 0.00 0.00 0.00 0.00 0.00 0.01 0.01 0.01 0.01 0.01 0.01 0.01 0.01 0.01 0.01 0.01 0.00 0.00
0.00 0.00 0.00 0.00 0.00 0.00 0.00 0.00 0.00 0.00 0.00 0.00 0.00 0.00 0.00 0.00 0.00 0.00 0.00 0.00 0.01 0.01 0.01 0.00 0.00 0.00 0.00 0.00 0.00 0.00 0.00 0.01 0.01 0.00 0.00 0.00 0.00 0.01 0.01 0.01 0.01 0.00 0.00
0.00 0.00 0.00 0.00 0.00 0.00 0.00 0.00 0.00 0.00 0.00 0.00 0.00 0.00 0.00 0.00 0.00 0.00 0.00 0.00 0.01 0.01 0.00 0.00 0.00 0.00 0.00 0.00 0.00 0.00 0.00 0.01 0.01 0.01 0.00 0.00 0.01 0.01 0.01 0.00 0.00 0.00 0.00
0.00 0.00 0.00 0.00 0.00 0.00 0.00 0.00 0.00 0.00 0.00 0.00 0.00 0.00 0.00 0.00 0.00 0.00 0.00 0.00 0.01 0.01 0.00 0.00 0.00 0.00 0.00 0.00 0.00 0.00 0.00 0.01 0.00 0.00 0.00 0.01 0.01 0.02 0.01 0.01 0.00 0.00 0.00
0.00 0.00 0.00 0.00 0.00 0.00 0.00 0.00 0.00 0.00 0.00 0.00 0.00 0.00 0.00 0.00 0.00 0.00 0.00 0.01 0.01 0.01 0.00 0.00 0.00 0.00 0.00 0.00 0.00 0.00 0.00 0.01 0.00 0.00 0.00 0.01 0.01 0.02 0.02 0.01 0.01 0.00 0.00
0.00 0.00 0.00 0.00 0.00 0.00 0.00 0.00 0.00 0.00 0.00 0.00 0.00 0.00 0.00 0.00 0.00 0.00 0.00 0.01 0.01 0.01 0.00 0.00 0.00 0.00 0.00 0.00 0.00 0.00 0.01 0.00 0.00 0.00 0.00 0.01 0.01 0.02 0.02 0.02 0.01 0.01 0.01
0.00 0.00 0.00 0.00 0.00 0.00 0.00 0.00 0.00 0.00 0.00 0.00 0.00 0.00 0.00 0.00 0.00 0.00 0.00 0.00 0.00 0.00 0.00 0.00 0.00 0.00 0.00 0.00 0.00 0.00 0.00 0.00 0.00 0.00 0.00 0.00 0.01 0.02 0.02 0.02 0.02 0.01 0.01
0.00 0.00 0.00 0.00 0.00 0.00 0.00 0.00 0.00 0.00 0.00 0.00 0.00 0.00 0.00 0.00 0.00 0.00 0.00 0.00 0.00 0.00 0.00 0.00 0.00 0.00 0.00 0.00 0.00 0.00 0.00 0.00 0.00 0.00 0.01 0.01 0.01 0.03 0.03 0.03 0.02 0.01 0.01
0.00 0.00 0.00 0.00 0.00 0.00 0.00 0.00 0.00 0.00 0.00 0.00 0.00 0.00 0.00 0.00 0.00 0.00 0.00 0.00 0.00 0.00 0.00 0.00 0.00 0.00 0.00 0.00 0.00 0.00 0.00 0.00 0.00 0.00 0.00 0.00 0.02 0.04 0.04 0.03 0.02 0.02 0.02
0.00 0.00 0.00 0.00 0.00 0.00 0.00 0.00 0.00 0.00 0.00 0.00 0.00 0.00 0.00 0.00 0.00 0.00 0.00 0.00 0.00 0.00 0.00 0.00 0.00 0.00 0.00 0.00 0.00 0.00 0.00 0.00 0.00 0.00 0.00 0.01 0.03 0.04 0.04 0.03 0.02 0.03 0.03
0.00 0.00 0.00 0.00 0.00 0.00 0.00 0.00 0.00 0.00 0.00 0.00 0.00 0.00 0.00 0.00 0.00 0.00 0.00 0.00 0.00 0.01 0.00 0.00 0.00 0.00 0.00 0.00 0.00 0.00 0.00 0.00 0.00 0.00 0.00 0.02 0.03 0.04 0.04 0.04 0.03 0.04 0.04
0.00 0.00 0.00 0.00 0.00 0.00 0.00 0.00 0.00 0.00 0.00 0.00 0.00 0.00 0.00 0.00 0.00 0.00 0.00 0.00 0.00 0.01 0.01 0.00 0.00 0.00 0.00 0.00 0.00 0.01 0.01 0.01 0.00 0.00 0.01 0.02 0.02 0.04 0.06 0.05 0.05 0.05 0.05
0.00 0.00 0.00 0.00 0.00 0.00 0.00 0.00 0.00 0.00 0.00 0.00 0.00 0.00 0.00 0.00 0.00 0.00 0.00 0.00 0.01 0.01 0.01 0.00 0.00 0.00 0.00 0.01 0.01 0.01 0.01 0.01 0.01 0.01 0.01 0.02 0.03 0.04 0.06 0.06 0.06 0.07 0.07
0.01 0.00 0.00 0.00 0.00 0.00 0.00 0.00 0.00 0.00 0.00 0.00 0.00 0.00 0.00 0.00 0.01 0.01 0.01 0.01 0.01 0.01 0.01 0.01 0.01 0.01 0.01 0.01 0.01 0.01 0.02 0.02 0.02 0.02 0.02 0.02 0.03 0.04 0.05 0.06 0.06 0.06 0.05
0.01 0.01 0.01 0.01 0.01 0.01 0.01 0.01 0.01 0.01 0.01 0.01 0.01 0.01 0.01 0.01 0.01 0.02 0.02 0.02 0.02 0.02 0.02 0.02 0.02 0.01 0.01 0.01 0.02 0.03 0.02 0.02 0.01 0.01 0.02 0.02 0.02 0.03 0.05 0.06 0.05 0.04 0.05
0.01 0.01 0.01 0.01 0.02 0.02 0.03 0.03 0.02 0.02 0.03 0.03 0.03 0.02 0.01 0.01 0.04 0.04 0.04 0.03 0.03 0.03 0.03 0.04 0.05 0.04 0.03 0.04 0.04 0.03 0.02 0.02 0.02 0.02 0.03 0.03 0.03 0.03 0.04 0.04 0.04 0.03 0.03
0.01 0.02 0.01 0.02 0.05 0.07 0.07 0.09 0.09 0.06 0.04 0.04 0.03 0.02 0.02 0.04 0.04 0.04 0.05 0.05 0.05 0.06 0.07 0.07 0.08 0.08 0.07 0.06 0.03 0.02 0.02 0.02 0.02 0.03 0.03 0.03 0.03 0.03 0.02 0.03 0.03 0.03 0.03
0.01 0.02 0.03 0.05 0.11 0.15 0.16 0.17 0.16 0.15 0.11 0.09 0.10 0.09 0.08 0.06 0.06 0.08 0.10 0.11 0.11 0.10 0.10 0.11 0.10 0.07 0.04 0.03 0.03 0.02 0.02 0.02 0.01 0.02 0.02 0.02 0.02 0.02 0.01 0.01 0.02 0.02 0.02
0.01 0.02 0.02 0.05 0.08 0.10 0.11 0.13 0.15 0.17 0.18 0.19 0.20 0.21 0.20 0.20 0.18 0.21 0.21 0.21 0.19 0.17 0.18 0.16 0.11 0.08 0.06 0.05 0.05 0.04 0.03 0.02 0.02 0.02 0.01 0.01 0.01 0.01 0.01 0.01 0.01 0.01 0.01
0.02 0.03 0.04 0.07 0.10 0.13 0.19 0.24 0.29 0.33 0.34 0.34 0.32 0.30 0.31 0.29 0.28 0.31 0.31 0.29 0.25 0.22 0.19 0.15 0.13 0.11 0.09 0.08 0.07 0.05 0.03 0.02 0.02 0.01 0.01 0.01 0.01 0.01 0.00 0.00 0.00 0.00 0.00
0.05 0.06 0.07 0.10 0.16 0.20 0.29 0.40 0.48 0.53 0.52 0.46 0.38 0.35 0.35 0.34 0.35 0.35 0.33 0.31 0.27 0.24 0.20 0.17 0.15 0.13 0.11 0.07 0.05 0.04 0.02 0.02 0.01 0.01 0.01 0.01 0.00 0.00 0.00 0.00 0.00 0.00 0.00
0.09 0.11 0.13 0.17 0.24 0.32 0.40 0.51 0.61 0.66 0.58 0.50 0.45 0.42 0.40 0.37 0.35 0.33 0.32 0.29 0.27 0.25 0.23 0.23 0.22 0.16 0.10 0.07 0.04 0.02 0.02 0.01 0.01 0.01 0.01 0.00 0.00 0.00 0.00 0.00 0.00 0.00 0.00
0.12 0.15 0.18 0.20 0.29 0.43 0.47 0.47 0.51 0.57 0.60 0.55 0.49 0.46 0.43 0.36 0.32 0.31 0.30 0.28 0.28 0.29 0.28 0.24 0.18 0.11 0.07 0.03 0.02 0.02 0.01 0.01 0.01 0.01 0.01 0.01 0.00 0.00 0.00 0.00 0.00 0.00 0.00
0.11 0.14 0.17 0.20 0.30 0.40 0.44 0.49 0.53 0.53 0.50 0.42 0.36 0.33 0.32 0.32 0.31 0.30 0.30 0.27 0.22 0.18 0.14 0.11 0.07 0.04 0.02 0.01 0.01 0.01 0.01 0.01 0.01 0.01 0.01 0.00 0.00 0.00 0.00 0.00 0.00 0.00 0.00
MSLP
1012.19 1011.99 1011.95 1012.07 1012.30 1012.58 1012.86 1013.09 1013.25 1013.37 1013.48 1013.62 1013.85 1014.17 1014.57 1015.02 1015.47 1015.88 1016.19 1016.40 1016.53 1016.60 1016.65 1016.71 1016.82 1016.96 1017.14 1017.32 1017.48 1017.61 1017.71 1017.77 1017.83 1017.91 1018.02 1018.17 1018.35 1018.56 1018.75 1018.93 1019.08 1019.19 1019.28
1011.75 1011.67 1011.75 1011.97 1012.29 1012.65 1012.98 1013.24 1013.44 1013.58 1013.71 1013.88 1014.14 1014.50 1014.93 1015.41 1015.87 1016.28 1016.58 1016.78 1016.88 1016.93 1016.97 1017.03 1017.14 1017.28 1017.45 1017.62 1017.76 1017.86 1017.91 1017.94 1017.97 1018.03 1018.13 1018.29 1018.48 1018.69 1018.90 1019.08 1019.23 1019.34 1019.43
1011.21 1011.26 1011.46 1011.80 1012.22 1012.67 1013.07 1013.40 1013.64 1013.83 1014.00 1014.21 1014.50 1014.87 1015.32 1015.79 1016.24 1016.62 1016.88 1017.05 1017.13 1017.16 1017.19 1017.26 1017.37 1017.52 1017.69 1017.84 1017.96 1018.03 1018.06 1018.07 1018.08 1018.13 1018.24 1018.40 1018.60 1018.83 1019.04 1019.23 1019.38 1019.50 1019.60
1010.70 1010.86 1011.17 1011.62 1012.14 1012.67 1013.16 1013.55 1013.86 1014.10 1014.31 1014.56 1014.86 1015.23 1015.66 1016.11 1016.51 1016.84 1017.07 1017.20 1017.26 1017.29 1017.32 1017.40 1017.53 1017.70 1017.87 1018.03 1018.14 1018.20 1018.21 1018.21 1018.22 1018.27 1018.38 1018.56 1018.77 1019.00 1019.22 1019.41 1019.56 1019.68 1019.79
1010.33 1010.57 1010.97 1011.49 1012.09 1012.69 1013.24 1013.70 1014.06 1014.35 1014.60 1014.86 1015.17 1015.53 1015.93 1016.32 1016.68 1016.96 1017.15 1017.25 1017.30 1017.34 1017.41 1017.52 1017.68 1017.87 1018.07 1018.24 1018.35 1018.40 1018.41 1018.41 1018.43 1018.49 1018.61 1018.79 1019.01 1019.24 1019.45 1019.64 1019.78 1019.91 1020.03
1010.19 1010.48 1010.92 1011.49 1012.12 1012.76 1013.34 1013.83 1014.23 1014.54 1014.81 1015.09 1015.39 1015.73 1016.09 1016.44 1016.75 1016.99 1017.15 1017.25 1017.32 1017.39 1017.49 1017.65 1017.86 1018.09 1018.31 1018.49 1018.61 1018.67 1018.69 1018.69 1018.71 1018.78 1018.91 1019.10 1019.31 1019.53 1019.73 1019.90 1020.03 1020.15 1020.27
1010.32 1010.62 1011.06 1011.62 1012.24 1012.86 1013.43 1013.93 1014.33 1014.65 1014.94 1015.22 1015.52 1015.84 1016.17 1016.49 1016.77 1016.99 1017.14 1017.25 1017.35 1017.46 1017.62 1017.83 1018.08 1018.35 1018.60 1018.79 1018.92 1018.98 1019.00 1019.00 1019.03 1019.11 1019.24 1019.42 1019.63 1019.83 1020.01 1020.16 1020.27 1020.38 1020.50
1010.70 1010.97 1011.37 1011.87 1012.43 1012.99 1013.52 1013.98 1014.36 1014.68 1014.97 1015.26 1015.57 1015.89 1016.21 1016.52 1016.79 1017.00 1017.16 1017.30 1017.43 1017.59 1017.79 1018.05 1018.34 1018.63 1018.88 1019.08 1019.20 1019.26 1019.28 1019.28 1019.31 1019.39 1019.52 1019.70 1019.89 1020.07 1020.23 1020.36 1020.46 1020.55 1020.66
1011.22 1011.45 1011.77 1012.19 1012.65 1013.13 1013.59 1013.99 1014.34 1014.66 1014.95 1015.26 1015.58 1015.92 1016.26 1016.57 1016.85 1017.07 1017.25 1017.41 1017.57 1017.76 1017.99 1018.27 1018.57 1018.86 1019.11 1019.29 1019.40 1019.44 1019.44 1019.45 1019.47 1019.55 1019.68 1019.85 1020.03 1020.21 1020.35 1020.47 1020.56 1020.64 1020.74
1011.74 1011.92 1012.17 1012.50 1012.87 1013.26 1013.63 1013.98 1014.30 1014.61 1014.92 1015.26 1015.61 1015.98 1016.35 1016.68 1016.97 1017.21 1017.40 1017.57 1017.74 1017.94 1018.18 1018.45 1018.73 1019.00 1019.21 1019.37 1019.44 1019.46 1019.45 1019.45 1019.47 1019.55 1019.68 1019.84 1020.03 1020.20 1020.35 1020.46 1020.55 1020.63 1020.73
1012.14 1012.29 1012.49 1012.75 1013.04 1013.35 1013.66 1013.96 1014.26 1014.57 1014.91 1015.29 1015.69 1016.10 1016.50 1016.86 1017.16 1017.41 1017.60 1017.76 1017.92 1018.10 1018.31 1018.54 1018.78 1019.01 1019.18 1019.29 1019.34 1019.33 1019.31 1019.29 1019.31 1019.39 1019.52 1019.70 1019.89 1020.08 1020.24 1020.37 1020.47 1020.57 1020.67
1012.31 1012.47 1012.66 1012.89 1013.13 1013.40 1013.67 1013.95 1014.25 1014.58 1014.95 1015.37 1015.81 1016.26 1016.69 1017.07 1017.38 1017.62 1017.80 1017.94 1018.07 1018.21 1018.37 1018.56 1018.74 1018.91 1019.04 1019.11 1019.12 1019.10 1019.06 1019.04 1019.07 1019.15 1019.29 1019.48 1019.68 1019.89 1020.07 1020.23 1020.36 1020.48 1020.60
1012.23 1012.44 1012.66 1012.90 1013.15 1013.41 1013.67 1013.96 1014.27 1014.63 1015.04 1015.49 1015.97 1016.45 1016.89 1017.28 1017.59 1017.81 1017.97 1018.08 1018.17 1018.26 1018.38 1018.51 1018.64 1018.77 1018.85 1018.89 1018.89 1018.86 1018.82 1018.81 1018.83 1018.92 1019.07 1019.27 1019.49 1019.71 1019.92 1020.11 1020.27 1020.42 1020.56
1011.93 1012.21 1012.51 1012.81 1013.10 1013.39 1013.69 1014.00 1014.34 1014.72 1015.15 1015.63 1016.12 1016.61 1017.05 1017.43 1017.72 1017.93 1018.06 1018.14 1018.21 1018.27 1018.35 1018.45 1018.55 1018.65 1018.71 1018.75 1018.75 1018.72 1018.69 1018.69 1018.72 1018.82 1018.97 1019.16 1019.39 1019.62 1019.85 1020.06 1020.24 1020.41 1020.57
1011.47 1011.86 1012.25 1012.63 1013.00 1013.35 1013.70 1014.05 1014.42 1014.82 1015.26 1015.73 1016.22 1016.68 1017.11 1017.46 1017.74 1017.93 1018.05 1018.13 1018.18 1018.24 1018.32 1018.41 1018.52 1018.62 1018.70 1018.75 1018.77 1018.77 1018.76 1018.77 1018.81 1018.90 1019.03 1019.22 1019.43 1019.66 1019.89 1020.10 1020.29 1020.47 1020.63
1010.96 1011.45 1011.94 1012.42 1012.87 1013.29 1013.69 1014.08 1014.47 1014.88 1015.31 1015.76 1016.21 1016.64 1017.03 1017.35 1017.61 1017.80 1017.93 1018.02 1018.11 1018.20 1018.30 1018.43 1018.57 1018.71 1018.84 1018.93 1018.99 1019.03 1019.05 1019.07 1019.11 1019.18 1019.30 1019.45 1019.63 1019.83 1020.03 1020.23 1020.41 1020.58 1020.72
1010.49 1011.06 1011.63 1012.19 1012.71 1013.20 1013.65 1014.07 1014.47 1014.88 1015.28 1015.69 1016.08 1016.46 1016.81 1017.10 1017.35 1017.55 1017.71 1017.85 1017.99 1018.14 1018.32 1018.51 1018.72 1018.92 1019.10 1019.26 1019.37 1019.45 1019.50 1019.53 1019.57 1019.62 1019.70 1019.81 1019.95 1020.10 1020.26 1020.42 1020.57 1020.71 1020.82
1010.12 1010.73 1011.35 1011.95 1012.52 1013.05 1013.54 1013.98 1014.39 1014.78 1015.15 1015.51 1015.85 1016.18 1016.48 1016.75 1017.00 1017.22 1017.43 1017.64 1017.85 1018.08 1018.34 1018.62 1018.90 1019.18 1019.43 1019.65 1019.82 1019.95 1020.03 1020.08 1020.11 1020.14 1020.18 1020.24 1020.32 1020.42 1020.53 1020.64 1020.75 1020.84 1020.91
1009.88 1010.47 1011.08 1011.70 1012.29 1012.84 1013.34 1013.80 1014.21 1014.59 1014.93 1015.25 1015.55 1015.84 1016.11 1016.37 1016.62 1016.88 1017.14 1017.41 1017.71 1018.02 1018.36 1018.72 1019.07 1019.42 1019.74 1020.02 1020.25 1020.42 1020.54 1020.60 1020.64 1020.65 1020.66 1020.67 1020.70 1020.75 1020.80 1020.86 1020.92 1020.97 1021.00
1009.76 1010.29 1010.85 1011.43 1012.00 1012.55 1013.06 1013.53 1013.95 1014.33 1014.67 1014.97 1015.25 1015.51 1015.76 1016.03 1016.30 1016.58 1016.89 1017.22 1017.58 1017.97 1018.37 1018.79 1019.20 1019.60 1019.98 1020.31 1020.58 1020.80 1020.95 1021.04 1021.08 1021.09 1021.08 1021.06 1021.05 1021.06 1021.07 1021.09 1021.10 1021.11 1021.10
1009.76 1010.17 1010.64 1011.15 1011.68 1012.20 1012.72 1013.20 1013.65 1014.05 1014.41 1014.72 1015.00 1015.27 1015.53 1015.80 1016.09 1016.41 1016.75 1017.12 1017.52 1017.94 1018.38 1018.83 1019.27 1019.71 1020.11 1020.48 1020.79 1021.05 1021.23 1021.36 1021.42 1021.44 1021.43 1021.41 1021.38 1021.36 1021.34 1021.33 1021.31 1021.29 1021.25
1009.86 1010.14 1010.49 1010.90 1011.36 1011.86 1012.37 1012.88 1013.36 1013.81 1014.21 1014.57 1014.89 1015.19 1015.48 1015.77 1016.08 1016.41 1016.77 1017.15 1017.56 1017.99 1018.42 1018.87 1019.32 1019.76 1020.18 1020.57 1020.91 1021.20 1021.43 1021.59 1021.69 1021.73 1021.74 1021.73 1021.70 1021.67 1021.64 1021.62 1021.58 1021.54 1021.47
1010.09 1010.22 1010.43 1010.73 1011.11 1011.57 1012.08 1012.62 1013.16 1013.67 1014.14 1014.57 1014.95 1015.30 1015.63 1015.95 1016.28 1016.62 1016.98 1017.35 1017.74 1018.14 1018.56 1018.98 1019.41 1019.83 1020.25 1020.64 1021.01 1021.33 1021.59 1021.79 1021.93 1022.02 1022.06 1022.06 1022.05 1022.03 1022.00 1021.97 1021.93 1021.87 1021.78
1010.46 1010.44 1010.52 1010.72 1011.03 1011.45 1011.95 1012.52 1013.11 1013.69 1014.25 1014.76 1015.21 1015.62 1016.00 1016.35 1016.70 1017.04 1017.38 1017.73 1018.09 1018.45 1018.82 1019.20 1019.60 1019.99 1020.40 1020.79 1021.17 1021.51 1021.81 1022.04 1022.22 1022.34 1022.41 1022.44 1022.45 1022.44 1022.41 1022.38 1022.33 1022.26 1022.16
1011.01 1010.87 1010.83 1010.93 1011.17 1011.55 1012.05 1012.64 1013.28 1013.92 1014.55 1015.13 1015.66 1016.13 1016.56 1016.94 1017.30 1017.64 1017.97 1018.29 1018.61 1018.93 1019.26 1019.60 1019.95 1020.31 1020.69 1021.08 1021.45 1021.81 1022.12 1022.38 1022.59 1022.73 1022.82 1022.87 1022.89 1022.88 1022.86 1022.82 1022.75 1022.66 1022.55
1011.76 1011.53 1011.41 1011.43 1011.61 1011.95 1012.43 1013.03 1013.69 1014.38 1015.06 1015.70 1016.28 1016.80 1017.26 1017.67 1018.04 1018.38 1018.70 1019.00 1019.29 1019.57 1019.86 1020.16 1020.48 1020.81 1021.17 1021.53 1021.89 1022.23 1022.54 1022.80 1023.01 1023.17 1023.26 1023.32 1023.33 1023.32 1023.28 1023.22 1023.14 1023.02 1022.88
Thickness
5791 5790 5786 5782 5780 5780 5780 5780 5780 5779 5778 5776 5773 5771 5769 5767 5765 5763 5761 5759 5758 5757 5756 5755 5754 5753 5753 5752 5751 5749 5748 5747 5746 5745 5744 5743 5741 5740 5739 5738 5736 5734 5733
5797 5790 5785 5781 5779 5777 5777 5776 5776 5775 5774 5772 5770 5768 5766 5764 5762 5760 5758 5756 5755 5754 5753 5752 5750 5749 5748 5747 5746 5745 5744 5743 5742 5741 5740 5739 5737 5735 5734 5733 5732 5731 5729
5796 5790 5784 5780 5777 5775 5774 5773 5772 5771 5769 5768 5766 5764 5763 5761 5759 5757 5755 5754 5752 5751 5750 5748 5747 5746 5744 5743 5742 5741 5740 5739 5738 5737 5736 5735 5733 5732 5730 5729 5728 5727 5725
5795 5788 5783 5779 5776 5773 5772 5770 5769 5767 5765 5764 5762 5761 5759 5757 5756 5754 5753 5751 5750 5748 5747 5745 5744 5742 5741 5740 5739 5737 5737 5736 5734 5733 5732 5731 5730 5728 5727 5725 5724 5722 5721
5792 5786 5782 5778 5774 5772 5770 5768 5766 5764 5762 5760 5759 5758 5756 5754 5753 5751 5750 5748 5747 5745 5743 5742 5741 5739 5738 5737 5735 5734 5733 5732 5731 5729 5728 5727 5726 5725 5723 5722 5720 5718 5717
5789 5784 5780 5776 5773 5770 5768 5766 5764 5762 5760 5758 5757 5755 5753 5752 5750 5749 5747 5745 5743 5741 5740 5739 5737 5736 5735 5734 5732 5731 5730 5729 5728 5726 5725 5724 5722 5721 5719 5718 5717 5715 5713
5787 5783 5779 5775 5772 5769 5767 5765 5762 5760 5758 5757 5755 5753 5751 5749 5748 5746 5744 5742 5740 5738 5737 5735 5734 5733 5731 5730 5729 5728 5727 5726 5725 5723 5721 5720 5719 5717 5715 5714 5713 5711 5710
5786 5782 5778 5774 5771 5768 5766 5764 5762 5759 5757 5755 5753 5751 5749 5747 5745 5744 5742 5740 5738 5736 5734 5732 5731 5730 5729 5728 5726 5725 5724 5723 5721 5720 5718 5717 5715 5714 5712 5711 5709 5708 5706
5784 5780 5776 5773 5770 5767 5765 5763 5761 5759 5756 5754 5752 5750 5747 5745 5743 5742 5740 5738 5736 5734 5732 5730 5728 5727 5726 5725 5723 5722 5721 5720 5719 5717 5715 5714 5712 5711 5709 5707 5706 5705 5703
5780 5778 5775 5772 5769 5767 5765 5762 5760 5758 5755 5753 5750 5748 5746 5744 5742 5740 5738 5736 5734 5732 5730 5728 5726 5725 5723 5722 5721 5720 5718 5717 5716 5714 5713 5711 5710 5708 5706 5705 5703 5702 5700
5776 5775 5773 5771 5768 5766 5764 5762 5760 5757 5755 5752 5749 5747 5744 5742 5740 5738 5736 5734 5732 5730 5727 5725 5724 5722 5721 5720 5719 5717 5716 5714 5712 5711 5710 5708 5707 5705 5703 5702 5700 5699 5697
5774 5774 5773 5771 5769 5766 5764 5762 5759 5756 5754 5751 5748 5746 5743 5740 5738 5735 5733 5732 5730 5728 5725 5723 5721 5719 5718 5716 5715 5715 5713 5711 5709 5708 5707 5706 5704 5702 5700 5698 5697 5695 5694
5777 5774 5773 5771 5769 5767 5765 5761 5758 5755 5752 5750 5747 5745 5742 5739 5736 5733 5731 5729 5727 5725 5723 5721 5719 5717 5715 5713 5712 5711 5710 5708 5706 5705 5704 5703 5701 5699 5697 5695 5693 5692 5690
5775 5774 5773 5772 5769 5767 5764 5761 5757 5754 5751 5749 5746 5744 5740 5737 5734 5731 5729 5727 5725 5722 5720 5718 5716 5715 5713 5711 5710 5708 5707 5705 5704 5702 5701 5700 5698 5696 5693 5691 5690 5688 5686
5775 5774 5773 5771 5769 5766 5763 5760 5756 5753 5750 5747 5744 5742 5739 5735 5732 5730 5727 5725 5722 5720 5718 5716 5714 5712 5711 5709 5707 5705 5704 5702 5701 5699 5698 5696 5694 5692 5690 5688 5686 5684 5682
5776 5774 5772 5770 5768 5766 5763 5759 5756 5752 5749 5745 5742 5739 5736 5733 5731 5728 5725 5723 5721 5718 5716 5714 5711 5710 5708 5706 5704 5702 5701 5699 5697 5695 5694 5692 5689 5688 5686 5684 5682 5680 5679
5777 5774 5772 5769 5767 5764 5761 5758 5755 5751 5747 5743 5739 5736 5733 5731 5728 5725 5723 5721 5718 5716 5713 5710 5708 5706 5704 5702 5700 5699 5697 5695 5693 5691 5689 5687 5685 5683 5681 5679 5677 5675 5673
5777 5774 5772 5770 5765 5762 5760 5757 5754 5749 5745 5741 5736 5732 5730 5727 5725 5722 5720 5718 5715 5712 5709 5707 5704 5701 5698 5696 5693 5692 5691 5689 5688 5686 5684 5682 5680 5678 5676 5673 5671 5670 5668
5777 5775 5770 5768 5765 5760 5757 5753 5750 5746 5742 5737 5733 5729 5726 5723 5721 5718 5716 5714 5712 5708 5705 5702 5698 5695 5691 5689 5687 5685 5684 5682 5680 5680 5678 5676 5673 5671 5669 5667 5665 5662 5660
5775 5773 5768 5765 5762 5757 5752 5747 5743 5740 5736 5732 5728 5725 5721 5718 5717 5714 5712 5709 5706 5703 5700 5697 5692 5689 5685 5682 5680 5677 5675 5673 5672 5671 5669 5667 5665 5663 5661 5658 5656 5654 5652
5771 5768 5765 5762 5758 5753 5747 5743 5737 5732 5730 5726 5723 5719 5716 5712 5710 5708 5705 5703 5700 5697 5694 5691 5685 5681 5676 5674 5671 5668 5666 5664 5662 5661 5659 5658 5655 5653 5651 5649 5647 5644 5642
5765 5763 5760 5757 5754 5752 5747 5742 5736 5728 5722 5720 5716 5711 5707 5705 5703 5701 5698 5696 5693 5689 5685 5682 5678 5672 5667 5664 5663 5660 5656 5654 5652 5650 5649 5647 5644 5642 5641 5638 5636 5634 5632
5756 5756 5754 5751 5749 5745 5741 5735 5727 5721 5715 5710 5706 5702 5697 5695 5694 5692 5690 5687 5684 5681 5677 5674 5671 5666 5661 5656 5654 5653 5649 5647 5642 5639 5636 5634 5632 5630 5627 5626 5624 5621 5619
5747 5748 5747 5744 5741 5737 5733 5728 5722 5716 5707 5702 5698 5693 5687 5684 5683 5680 5678 5675 5672 5670 5667 5664 5661 5657 5653 5648 5644 5641 5639 5637 5634 5629 5624 5621 5619 5616 5614 5612 5609 5607 5605
5737 5737 5736 5735 5731 5727 5724 5719 5715 5708 5700 5693 5688 5682 5677 5673 5670 5668 5664 5662 5659 5656 5654 5652 5649 5645 5642 5638 5634 5630 5627 5622 5619 5618 5613 5608 5605 5602 5599 5596 5594 5591 5589
5724 5724 5724 5723 5718 5715 5713 5709 5704 5697 5689 5682 5675 5670 5665 5660 5657 5655 5652 5648 5645 5643 5640 5637 5634 5632 5628 5624 5620 5617 5613 5610 5605 5602 5598 5593 5589 5587 5583 5581 5578 5575 5572